Regional Weather Roundup
Issued by NWS

Home | Current Version | Previous Version | Text Only | Print | Product List | Glossary Off
Versions: 1 2 3 4 5 6 7 8 9 10 11 12 13 14 15 16 17 18 19 20 21 22 23 24 25 26 27 28 29 30 31 32 33 34 35 36 37 38 39 40 41 42 43 44 45 46 47 48 49 50

000
ASUS45 KTFX 192104
RWRMT
MONTANA HOURLY WEATHER ROUNDUP
NATIONAL WEATHER SERVICE GREAT FALLS MT
304 PM MDT TUE AUG 19 2014

NOTE: "FAIR" INDICATES FEW OR NO CLOUDS BELOW 12000 FEET WITH NO
SIGNIFICANT WEATHER AND/OR OBSTRUCTIONS TO VISIBILITY.

* THESE STATIONS ARE NOT UNDER NWS QUALITY CONTROL. THEY DO NOT
   REPORT WEATHER SUCH AS PRECIPITATION OR FOG.

MTZ001>007-043-192200-
WEST OF THE DIVIDE
CITY           SKY/WX    TMP DP  RH WIND       PRES   REMARKS
KALISPELL      LGT RAIN  77  54  45 S10G17    29.72F
MISSOULA       SUNNY     88  43  21 VRB7      29.75F
BUTTE          TSTM      75  39  27 NW13      29.89S
MULLAN PASS    PTSUNNY   57  52  83 VRB7G25   29.95F
* ESSEX        N/A       79  44  29 S7         N/A
* LINCOLN      N/A       81  43  26 W6G14      N/A
* LOOKOUT PASS N/A       62  53  73 N9         N/A
* POLSON       N/A       88  47  24 SW3G8      N/A
* RONAN APT    PTCLDY    84  45  26 W6         N/A
* SEELEY LAKE  N/A       83  45  26 W5G11      N/A
* THOMP F APT  PTCLDY    76  41  29 SW12G22    N/A
* YAAK HILL    N/A       85  49  29 VRB4       N/A
$$

MTZ008-052>055-192200-
SOUTHWEST MONTANA
CITY           SKY/WX    TMP DP  RH WIND       PRES   REMARKS
BOZEMAN        PTCLDY    84  43  24 N7        29.80F
DILLON         PTSUNNY   81  41  24 N6        29.83F
W YELLOWSTONE  CLOUDY    73  39  29 S18G30    30.00R
* THREE FORKS  PTCLDY    84  52  33 N/A        N/A
* BOULDER HILL N/A       77  39  26 E1G12      N/A
* MONIDA PASS  N/A       60  39  46 NW9G20     N/A
* RAYNOLDS PAS N/A       75  59  58 S15G23     N/A
* WHITEHALL    N/A       83  44  25 S3G9       N/A
* WISE RIVER   N/A       75  41  30 NW10G39    N/A
$$

MTZ009>010-012-014-046-048-049-054-192200-
EAST SLOPES AND CENTRAL MONTANA
CITY           SKY/WX    TMP DP  RH WIND       PRES   REMARKS
CUT BANK       TSTM      79  52  39 N13       29.75S
GREAT FALLS    PTCLDY    86  37  17 W12G18    29.73F
HELENA         PTCLDY    86  39  19 W13G20    29.75F
MALMSTROM AFB  PTCLDY    84  37  19 VRB5G16   29.73F
* CONRAD       PTCLDY    86  48  27 W9         N/A
* DEARBORN     N/A       86  39  19 S16        N/A
* EAST GLACIER N/A       76  44  32 W21G28     N/A
* MONARCH      N/A       76  36  23 NW13G18    N/A
* PENDROY      N/A       84  43  24 W11G17     N/A
* ROGERS PASS  N/A       76  39  26 SE8G24     N/A
* SAINT MARY   N/A       78  49  36 SW7G18     N/A
* SWEET GRASS  N/A       81  42  25 N11G21     N/A
$$

MTZ011-013-016-021-035-040-045-047-050-051-192200-
NORTH CENTRAL MONTANA
CITY           SKY/WX    TMP DP  RH WIND       PRES   REMARKS
HAVRE          PTCLDY    88  45  22 SW14      29.64F
LEWISTOWN      PTCLDY    86  36  17 NW13      29.77F
* CHESTER      N/A       85  42  22 NW9G14     N/A
* DENTON       N/A       88  39  18 W17G29     N/A
* GEYSER       N/A       86  39  19 NW11G25    N/A
* JUDITH GAP   N/A       86  40  20 W16G29     N/A
* LOMA         N/A       89  43  20 NW11G20    N/A
$$

MTZ017>020-022>027-061-062-192200-
NORTHEAST MONTANA
CITY           SKY/WX    TMP DP  RH WIND       PRES   REMARKS
GLASGOW        SUNNY     91  48  23 S9        29.63F
GLENDIVE       SUNNY     91  55  30 S13       29.70F
JORDAN         PTCLDY    90  43  19 W8G17     29.68S
SIDNEY         SUNNY     90  61  38 S12       29.69F
WOLF POINT     SUNNY     93  50  23 S7G20     29.62F
* BEAVER HILL  N/A       87  58  37 SE12G17    N/A
* CIRCLE       N/A       93  48  21 N/A        N/A
* SACO         N/A       90  52  27 SW9G14     N/A
$$

MTZ028>042-056>058-192200-
SOUTHCENTRAL AND SOUTHEAST MONTANA
CITY           SKY/WX    TMP DP  RH WIND       PRES   REMARKS
BAKER          PTSUNNY   93  46  20 N/A       29.74F
BILLINGS       PTSUNNY   91  39  16 SW12      29.73F
LIVINGSTON     PTSUNNY   88  36  16 NW3       29.79F
MILES CITY     PTCLDY    93  39  15 VRB5      29.68F
* LAUREL APT   PTSUNNY   90  39  17 S5         N/A
* ROUNDUP APT  PTCLDY    91  39  16 SW17G28    N/A
* HYSHAM       N/A       91  41  17 W2G12      N/A
* LAME DEER    N/A       87  36  16 W8G13      N/A
* REED POINT   N/A       89  45  22 N/A        N/A
* ROSCOE HILL  N/A       81  38  21 W4G11      N/A
$$

REGIONAL REPORTS...DAKOTAS
CITY           SKY/WX    TMP DP  RH WIND       PRES   REMARKS
WILLISTON      SUNNY     90  52  27 SE10      29.69F
DICKINSON      SUNNY     86  61  43 S9        29.74F HI  86
BEACH          N/A       84  59  43 SE12      29.74F HI  84
CROSBY         SUNNY     86  55  35 S3        29.71S
TIOGA          SUNNY     86  54  33 SW10      29.76S
WATFORD CITY   HAZE      88  55  33 SE13      29.69F
BISMARCK       SUNNY     88  61  40 S5        29.75F HI  88
GRAND FORKS    PTCLDY    82  64  55 NE3       29.73S HI  84
FARGO          SUNNY     81  64  56 N5        29.74F HI  83
BUFFALO SD     PTCLDY    91  54  28 E12       29.70F
RAPID CITY     PTCLDY    81  64  56 NE5       29.79F HI  83
$$

REGIONAL REPORTS...WYOMING/IDAHO/WASHINGTON
CITY           SKY/WX    TMP DP  RH WIND       PRES   REMARKS
GILLETTE       PTCLDY    91  36  14 W9        29.82F
SHERIDAN       PTSUNNY   91  34  13 CALM      29.77F
CODY           CLOUDY    73  45  37 S21G33    29.89R
YELLOWSTONE LA CLOUDY    68  37  32 VRB7      30.10F
SALMON         TSTM      63  52  68 SE9       29.88R
MULLAN PASS    PTSUNNY   57  52  83 VRB7G25   29.95S
SAND POINT     CLOUDY    79  54  42 SW7       29.73F
SPOKANE        PTSUNNY   86  46  25 N5        29.73F
$$

REGIONAL REPORTS...SASKATCHEWAN
CITY           SKY/WX    TMP DP  RH WIND       PRES   REMARKS
SWIFT CURRENT  TSTM      88  52  29 SW9G18    29.61F

$$




USA.gov is the U.S. government's official web portal to all federal, state and local government web resources and services.